User: anonymous   Login
Location: Stonelick Lake State Park
(39.2170°N, 84.0850°W)
Time: 12:27:14
(UTC-04:00)
Language:

Abrixas rocket - Orbit

View from above orbital plane
View from above orbital plane
View from above satellite
View from above satellite

Ground track
Ground track

The orbit data is extracted from the following two-line orbital elements,

1 25723U 99022C   17080.76296312 +.00006188 +00000-0 +10467-3 0  9997
2 25723 048.4166 273.1457 0010521 327.5970 032.4328 15.52830662992629
Epoch (UTC): 21 March 2017 18:18:40
Eccentricity: 0.0010521
inclination: 48.4166°
perigee height: 401 km
apogee height: 415 km
right ascension of ascending node: 273.1457°
argument of perigee: 327.5970°
revolutions per day: 15.52830662
mean anomaly at epoch: 32.4328°
orbit number at epoch: 99262

The dashed part of the orbit path shows where the satellite is in the earth's shadow,  

DLR